When you browse on this site, cookies collect data to enhance your experience and personalize the content and advertising you see.
Visit our Privacy Policy to learn more. By continuing to use the site, you agree to this use of cookies and data.
  • En España
  • Lista de países
  • Para 7 días
  • Temperatura del agua
  • Mapa Satelital
  • El tiempo en el mapa
  • Informadores
  • user-avatar
    Iniciar sesión

    Tiempo cada hora Bolonia

    Hoy, 19 Junio, Miércoles

    Tiempo Temperatura Precipitaciones Viento Presión Humedad
    00:00 +21°C° 0.1 mm 2 mps 753 mmHg 78%
    01:00 +21°C° 0.1 mm 2 mps 753 mmHg 78%
    02:00 +21°C° 0 mm 2 mps 753 mmHg 78%
    03:00 +20°C° 0 mm 2 mps 753 mmHg 78%
    04:00 +20°C° 0 mm 2 mps 753 mmHg 78%
    05:00 +22°C° 0 mm 1 mps 753 mmHg 76%
    06:00 +23°C° 0 mm 1 mps 753 mmHg 74%
    07:00 +24°C° 0 mm 1 mps 753 mmHg 72%
    08:00 +26°C° 0 mm 1 mps 753 mmHg 67%
    09:00 +27°C° 0 mm 1 mps 753 mmHg 62%
    10:00 +28°C° 0 mm 1 mps 753 mmHg 57%
    11:00 +29°C° 0 mm 1 mps 753 mmHg 54%
    12:00 +30°C° 0 mm 1 mps 753 mmHg 51%
    13:00 +31°C° 0 mm 1 mps 753 mmHg 48%
    14:00 +31°C° 0.1 mm 1 mps 752 mmHg 47%
    15:00 +31°C° 0.1 mm 1 mps 752 mmHg 46%
    16:00 +32°C° 0.1 mm 1 mps 752 mmHg 46%
    17:00 +30°C° 0 mm 1 mps 752 mmHg 51%
    18:00 +29°C° 0 mm 1 mps 752 mmHg 57%
    19:00 +28°C° 0 mm 1 mps 752 mmHg 62%
    20:00 +26°C° 0 mm 2 mps 752 mmHg 60%
    21:00 +24°C° 0 mm 2 mps 752 mmHg 57%
    22:00 +21°C° 0 mm 3 mps 752 mmHg 54%
    23:00 +21°C° 0 mm 3 mps 752 mmHg 53%

    Mañana, 20 Junio, Jueves

    Tiempo Temperatura Precipitaciones Viento Presión Humedad
    00:00 +20°C° 0 mm 3 mps 752 mmHg 52%
    01:00 +20°C° 0 mm 3 mps 753 mmHg 51%
    02:00 +19°C° 0 mm 2 mps 752 mmHg 51%
    03:00 +19°C° 0 mm 2 mps 752 mmHg 51%
    04:00 +19°C° 0 mm 2 mps 752 mmHg 51%
    05:00 +19°C° 0 mm 2 mps 752 mmHg 54%
    06:00 +20°C° 0 mm 2 mps 752 mmHg 57%
    07:00 +21°C° 0 mm 2 mps 753 mmHg 59%
    08:00 +24°C° 0 mm 1 mps 753 mmHg 55%
    09:00 +25°C° 0 mm 1 mps 753 mmHg 51%
    10:00 +27°C° 0 mm 1 mps 753 mmHg 47%
    11:00 +28°C° 0 mm 1 mps 753 mmHg 45%
    12:00 +29°C° 0 mm 1 mps 753 mmHg 43%
    13:00 +30°C° 0 mm 2 mps 752 mmHg 42%
    14:00 +31°C° 0 mm 2 mps 752 mmHg 42%
    15:00 +31°C° 0 mm 2 mps 752 mmHg 42%
    16:00 +31°C° 0 mm 2 mps 752 mmHg 43%
    17:00 +30°C° 0 mm 2 mps 751 mmHg 48%
    18:00 +28°C° 0 mm 2 mps 751 mmHg 53%
    19:00 +26°C° 0 mm 2 mps 751 mmHg 58%
    20:00 +25°C° 0 mm 3 mps 752 mmHg 55%
    21:00 +24°C° 0 mm 3 mps 752 mmHg 51%
    22:00 +21°C° 0 mm 3 mps 752 mmHg 48%
    23:00 +21°C° 0 mm 3 mps 753 mmHg 46%

    Pasado mañana, 21 Junio, Viernes

    Tiempo Temperatura Precipitaciones Viento Presión Humedad
    00:00 +20°C° 0 mm 3 mps 753 mmHg 45%
    01:00 +20°C° 0 mm 2 mps 753 mmHg 44%
    02:00 +19°C° 0 mm 2 mps 753 mmHg 46%
    03:00 +19°C° 0 mm 2 mps 753 mmHg 47%
    04:00 +19°C° 0 mm 2 mps 753 mmHg 49%
    05:00 +20°C° 0 mm 2 mps 753 mmHg 53%
    06:00 +22°C° 0 mm 1 mps 753 mmHg 57%
    07:00 +23°C° 0 mm 1 mps 753 mmHg 60%
    08:00 +24°C° 0 mm 1 mps 753 mmHg 57%
    09:00 +26°C° 0 mm 1 mps 753 mmHg 53%
    10:00 +27°C° 0 mm 1 mps 753 mmHg 50%
    11:00 +28°C° 0 mm 1 mps 753 mmHg 48%
    12:00 +29°C° 0 mm 1 mps 753 mmHg 47%
    13:00 +30°C° 0 mm 1 mps 753 mmHg 45%
    14:00 +30°C° 0 mm 1 mps 753 mmHg 46%
    15:00 +31°C° 0 mm 1 mps 752 mmHg 46%
    16:00 +31°C° 0 mm 2 mps 752 mmHg 47%
    17:00 +29°C° 0 mm 2 mps 752 mmHg 54%
    18:00 +28°C° 0 mm 2 mps 752 mmHg 61%
    19:00 +26°C° 0 mm 2 mps 752 mmHg 67%
    20:00 +25°C° 0 mm 2 mps 752 mmHg 69%
    21:00 +24°C° 0 mm 2 mps 752 mmHg 70%
    22:00 +21°C° 0 mm 2 mps 753 mmHg 71%
    23:00 +21°C° 0 mm 2 mps 753 mmHg 71%

    22 Junio, Sábado

    Tiempo Temperatura Precipitaciones Viento Presión Humedad
    00:00 +20°C° 0 mm 2 mps 753 mmHg 71%
    01:00 +20°C° 0 mm 2 mps 753 mmHg 70%
    02:00 +20°C° 0 mm 2 mps 753 mmHg 71%
    03:00 +19°C° 0 mm 2 mps 752 mmHg 72%
    04:00 +20°C° 0 mm 1 mps 752 mmHg 73%
    05:00 +21°C° 0 mm 1 mps 752 mmHg 73%
    06:00 +22°C° 0 mm 1 mps 753 mmHg 72%
    07:00 +23°C° 0 mm 1 mps 753 mmHg 71%
    08:00 +25°C° 0 mm 1 mps 753 mmHg 67%
    09:00 +26°C° 0 mm 1 mps 753 mmHg 62%
    10:00 +28°C° 0 mm 1 mps 753 mmHg 58%
    11:00 +29°C° 0 mm 1 mps 752 mmHg 55%
    12:00 +30°C° 0 mm 1 mps 752 mmHg 51%
    13:00 +31°C° 0 mm 1 mps 752 mmHg 48%
    14:00 +31°C° 0 mm 1 mps 752 mmHg 47%
    15:00 +31°C° 0 mm 1 mps 752 mmHg 47%
    16:00 +32°C° 0 mm 1 mps 751 mmHg 47%
    17:00 +30°C° 0 mm 1 mps 752 mmHg 54%
    18:00 +29°C° 0 mm 1 mps 752 mmHg 60%
    19:00 +27°C° 0 mm 1 mps 752 mmHg 67%
    20:00 +26°C° 0 mm 2 mps 752 mmHg 68%
    21:00 +25°C° 0 mm 2 mps 752 mmHg 70%
    22:00 +23°C° 0 mm 2 mps 753 mmHg 71%
    23:00 +23°C° 0 mm 2 mps 753 mmHg 70%

    23 Junio, Domingo

    Tiempo Temperatura Precipitaciones Viento Presión Humedad
    00:00 +21°C° 0 mm 2 mps 753 mmHg 69%
    01:00 +21°C° 0 mm 2 mps 753 mmHg 67%
    02:00 +21°C° 0 mm 2 mps 753 mmHg 67%
    03:00 +20°C° 0 mm 2 mps 753 mmHg 68%
    04:00 +20°C° 0 mm 2 mps 753 mmHg 68%
    05:00 +21°C° 0 mm 2 mps 753 mmHg 68%
    06:00 +23°C° 0 mm 2 mps 754 mmHg 69%
    07:00 +24°C° 0 mm 2 mps 754 mmHg 70%
    08:00 +25°C° 0 mm 2 mps 754 mmHg 66%
    09:00 +27°C° 0 mm 1 mps 754 mmHg 62%
    10:00 +28°C° 0 mm 1 mps 755 mmHg 59%
    11:00 +29°C° 0 mm 1 mps 755 mmHg 55%
    12:00 +30°C° 0 mm 1 mps 755 mmHg 52%
    13:00 +31°C° 0 mm 1 mps 755 mmHg 48%
    14:00 +32°C° 0 mm 1 mps 754 mmHg 48%
    15:00 +32°C° 0 mm 1 mps 754 mmHg 47%
    16:00 +32°C° 0 mm 1 mps 754 mmHg 47%
    17:00 +31°C° 0 mm 1 mps 754 mmHg 53%
    18:00 +30°C° 0 mm 1 mps 754 mmHg 60%
    19:00 +28°C° 0 mm 1 mps 754 mmHg 67%
    20:00 +27°C° 0 mm 1 mps 755 mmHg 68%
    21:00 +26°C° 0 mm 1 mps 755 mmHg 70%
    22:00 +24°C° 0 mm 1 mps 756 mmHg 72%
    23:00 +24°C° 0 mm 1 mps 756 mmHg 71%

    24 Junio, Lunes

    Tiempo Temperatura Precipitaciones Viento Presión Humedad
    00:00 +23°C° 0 mm 1 mps 756 mmHg 70%
    01:00 +23°C° 0 mm 1 mps 756 mmHg 69%
    02:00 +23°C° 0 mm 1 mps 756 mmHg 70%
    03:00 +22°C° 0 mm 1 mps 756 mmHg 72%
    04:00 +22°C° 0 mm 1 mps 756 mmHg 74%
    05:00 +21°C° 0 mm 0 mps 757 mmHg 72%
    06:00 +22°C° 0 mm 0 mps 757 mmHg 70%
    07:00 +24°C° 0 mm 0 mps 757 mmHg 68%
    08:00 +25°C° 0 mm 0 mps 757 mmHg 64%
    09:00 +29°C° 0 mm 1 mps 757 mmHg 60%
    10:00 +30°C° 0 mm 1 mps 758 mmHg 56%
    11:00 +31°C° 0 mm 1 mps 758 mmHg 54%
    12:00 +32°C° 0 mm 1 mps 757 mmHg 51%
    13:00 +33°C° 0 mm 1 mps 757 mmHg 49%
    14:00 +34°C° 0 mm 2 mps 757 mmHg 50%
    15:00 +34°C° 0 mm 2 mps 757 mmHg 50%
    16:00 +34°C° 0 mm 3 mps 757 mmHg 51%
    17:00 +32°C° 0 mm 2 mps 757 mmHg 58%
    18:00 +30°C° 0 mm 2 mps 757 mmHg 66%
    19:00 +29°C° 0 mm 2 mps 757 mmHg 73%
    20:00 +27°C° 0 mm 2 mps 758 mmHg 74%
    21:00 +26°C° 0 mm 1 mps 758 mmHg 75%
    22:00 +25°C° 0 mm 1 mps 759 mmHg 76%
    23:00 +25°C° 0 mm 1 mps 759 mmHg 76%
    Mostrar más